Location: Alafon
(8.4500°N, 4.2333°E)
Time: 00:21:28
(UTC+00:00)

CZ-2C R/B - Pass Details

Date: 05 July 2020
Orbit: 784 x 871 km, 98.3° (Epoch: 06 August)

Event Time Altitude Azimuth Distance (km) Brightness Sun altitude
Rises 19:16:49 0° 14° (NNE) 3,320 6.0 -16.8°
Reaches altitude 10° 19:19:10 10° 15° (NNE) 2,377 5.2 -17.3°
Maximum altitude 19:24:24 80° 102° (ESE) 807 2.4 -18.5°
Drops below altitude 10° 19:29:34 10° 189° (S) 2,342 4.8 -19.6°
Sets 19:31:53 0° 190° (S) 3,267 5.6 -20.1°
